St. George, UT

3:09 PM MDT on July 20, 2017 (GMT -0600)
Saint George Municipal

Weather History for KSGU - April, 2014

Change the Weather History Date:

Thursday, April 24, 2014

  Actual Average Record
Temperature  
Mean Temperature 64 °F -  
Max Temperature 80 °F 80 °F 96 °F (1946)
Min Temperature 48 °F 48 °F 32 °F (1960)
Degree Days  
Heating Degree Days 1    
Growing Degree Days 14 (Base 50)    
Moisture  
Dew Point 16 °F    
Average Humidity 16    
Maximum Humidity 24    
Minimum Humidity 10    
Precipitation  
Precipitation 0.00 in - - ()
Sea Level Pressure  
Sea Level Pressure 29.97 in    
Wind  
Wind Speed 6 mph (South)    
Max Wind Speed 13 mph    
Max Gust Speed 18 mph    
Visibility 10 miles    
Events      
Averages and records for this station are not official NWS values.
T = Trace of Precipitation, MM = Missing Value Source: NWS Daily Summary

Daily Weather History Graph

Daily Weather History Graph

Search for Another Location

Airport or City:

Trip Planner

Search our weather history database for the weather conditions in past years. The results will help you decide how hot, cold, wet, or windy it might be!

Date:

Astronomy

Apr. 24, 2014 Rise Set
Actual Time 6:47 AM MDT 8:16 PM MDT
Civil Twilight 6:20 AM MDT 8:44 PM MDT
Nautical Twilight 5:47 AM MDT 9:17 PM MDT
Astronomical Twilight 5:13 AM MDT 9:52 PM MDT
Moon 3:54 AM MDT (4/24) 3:43 PM MDT (4/24)
Length of Visible Light 14h 23m
Length of Day
13h 29m
Waning Crescent, 24% of the Moon is Illuminated
Apr 24
Waning Crescent
Apr 29
New
May 6
First Quarter
May 14
Full
May 21
Last Quarter

Hourly Weather History & Observations

Time (MDT) Temp. Dew Point Humidity Pressure Visibility Wind Dir Wind Speed Gust Speed Precip Events Conditions
12:15 AM 57.2 °F 14.0 °F 18% 30.00 in 10.0 mi SSE 3.5 mph - N/A   Clear
12:35 AM 55.4 °F 15.8 °F 21% 30.00 in 10.0 mi ESE 6.9 mph - N/A   Clear
12:55 AM 55.4 °F 15.8 °F 21% 30.00 in 10.0 mi Calm Calm - N/A   Clear
1:15 AM 57.2 °F 15.8 °F 20% 30.01 in 10.0 mi SSE 4.6 mph - N/A   Clear
1:35 AM 53.6 °F 15.8 °F 22% 30.01 in 10.0 mi East 5.8 mph - N/A   Clear
1:55 AM 53.6 °F 15.8 °F 22% 30.01 in 10.0 mi ESE 10.4 mph - N/A   Clear
2:15 AM 53.6 °F 15.8 °F 22% 30.01 in 10.0 mi ESE 6.9 mph - N/A   Clear
2:55 AM 53.6 °F 15.8 °F 22% 30.02 in 10.0 mi East 6.9 mph - N/A   Clear
3:15 AM 53.6 °F 14.0 °F 21% 30.02 in 10.0 mi East 6.9 mph - N/A   Clear
3:35 AM 53.6 °F 14.0 °F 21% 30.02 in 10.0 mi ESE 4.6 mph - N/A   Clear
3:55 AM 51.8 °F 14.0 °F 22% 30.02 in 10.0 mi SSE 4.6 mph - N/A   Clear
4:15 AM 53.6 °F 14.0 °F 21% 30.02 in 10.0 mi Calm Calm - N/A   Clear
4:35 AM 51.8 °F 14.0 °F 22% 30.03 in 10.0 mi SSE 4.6 mph - N/A   Clear
4:55 AM 51.8 °F 14.0 °F 22% 30.03 in 10.0 mi ESE 6.9 mph - N/A   Clear
5:15 AM 51.8 °F 12.2 °F 21% 30.03 in 10.0 mi SE 5.8 mph - N/A   Clear
5:35 AM 50.0 °F 14.0 °F 24% 30.03 in 10.0 mi ESE 8.1 mph - N/A   Clear
5:55 AM 48.2 °F 12.2 °F 24% 30.04 in 10.0 mi SE 8.1 mph - N/A   Clear
6:15 AM 48.2 °F 12.2 °F 24% 30.04 in 10.0 mi SE 9.2 mph - N/A   Clear
6:35 AM 48.2 °F 12.2 °F 24% 30.04 in 10.0 mi Calm Calm - N/A   Clear
6:55 AM 48.2 °F 12.2 °F 24% 30.05 in 10.0 mi Calm Calm - N/A   Clear
7:15 AM 50.0 °F 12.2 °F 22% 30.06 in 10.0 mi SSE 4.6 mph - N/A   Clear
7:35 AM 50.0 °F 14.0 °F 24% 30.06 in 10.0 mi ESE 5.8 mph - N/A   Clear
7:55 AM 51.8 °F 14.0 °F 22% 30.07 in 10.0 mi East 4.6 mph - N/A   Clear
8:15 AM 53.6 °F 15.8 °F 22% 30.08 in 10.0 mi East 8.1 mph - N/A   Clear
8:35 AM 55.4 °F 14.0 °F 20% 30.07 in 10.0 mi SE 10.4 mph - N/A   Clear
8:55 AM 57.2 °F 15.8 °F 20% 30.07 in 10.0 mi SE 9.2 mph - N/A   Clear
9:15 AM 57.2 °F 15.8 °F 20% 30.07 in 10.0 mi SSE 5.8 mph - N/A   Clear
9:35 AM 57.2 °F 15.8 °F 20% 30.07 in 10.0 mi WNW 5.8 mph - N/A   Clear
9:55 AM 57.2 °F 17.6 °F 21% 30.08 in 10.0 mi WNW 3.5 mph - N/A   Clear
10:15 AM 59.0 °F 17.6 °F 20% 30.08 in 10.0 mi NNW 5.8 mph - N/A   Clear
10:35 AM 60.8 °F 17.6 °F 19% 30.07 in 10.0 mi North 3.5 mph - N/A   Clear
10:55 AM 62.6 °F 17.6 °F 18% 30.06 in 10.0 mi Calm Calm - N/A   Clear
11:15 AM 64.4 °F 19.4 °F 18% 30.06 in 10.0 mi WNW 3.5 mph - N/A   Clear
11:35 AM 66.2 °F 17.6 °F 15% 30.06 in 10.0 mi Calm Calm - N/A   Clear
11:55 AM 66.2 °F 19.4 °F 17% 30.04 in 10.0 mi WNW 4.6 mph - N/A   Clear
12:15 PM 68.0 °F 19.4 °F 16% 30.04 in 10.0 mi NW 4.6 mph - N/A   Clear
12:35 PM 69.8 °F 19.4 °F 15% 30.03 in 10.0 mi WNW 3.5 mph - N/A   Clear
12:55 PM 71.6 °F 19.4 °F 14% 30.02 in 10.0 mi NNW 3.5 mph - N/A   Clear
1:15 PM 71.6 °F 19.4 °F 14% 30.00 in 10.0 mi Calm Calm - N/A   Clear
1:35 PM 73.4 °F 19.4 °F 13% 29.99 in 10.0 mi North 5.8 mph - N/A   Clear
1:55 PM 75.2 °F 21.2 °F 13% 29.98 in 10.0 mi NW 5.8 mph - N/A   Clear
2:15 PM 73.4 °F 19.4 °F 13% 29.97 in 10.0 mi Calm Calm - N/A   Clear
2:35 PM 75.2 °F 19.4 °F 12% 29.96 in 10.0 mi North 6.9 mph - N/A   Clear
2:55 PM 77.0 °F 19.4 °F 12% 29.95 in 10.0 mi WNW 8.1 mph - N/A   Clear
3:15 PM 77.0 °F 19.4 °F 12% 29.94 in 10.0 mi West 4.6 mph - N/A   Clear
3:35 PM 77.0 °F 19.4 °F 12% 29.93 in 10.0 mi North 6.9 mph - N/A   Clear
3:55 PM 78.8 °F 19.4 °F 11% 29.92 in 10.0 mi West 8.1 mph - N/A   Clear
4:15 PM 78.8 °F 19.4 °F 11% 29.91 in 10.0 mi Calm Calm - N/A   Clear
4:35 PM 78.8 °F 19.4 °F 11% 29.90 in 10.0 mi WSW 3.5 mph - N/A   Clear
4:55 PM 78.8 °F 19.4 °F 11% 29.89 in 10.0 mi SW 10.4 mph - N/A   Clear
5:15 PM 78.8 °F 19.4 °F 11% 29.88 in 10.0 mi West 9.2 mph - N/A   Clear
5:35 PM 80.6 °F 19.4 °F 10% 29.88 in 10.0 mi WSW 10.4 mph 18.4 mph N/A   Clear
5:55 PM 78.8 °F 19.4 °F 11% 29.87 in 10.0 mi WSW 12.7 mph - N/A   Clear
6:15 PM 80.6 °F 19.4 °F 10% 29.87 in 10.0 mi West 12.7 mph 18.4 mph N/A   Clear
6:35 PM 78.8 °F 19.4 °F 11% 29.86 in 10.0 mi West 8.1 mph 16.1 mph N/A   Clear
6:55 PM 78.8 °F 19.4 °F 11% 29.85 in 10.0 mi West 10.4 mph - N/A   Clear
7:15 PM 78.8 °F 17.6 °F 10% 29.85 in 10.0 mi West 12.7 mph - N/A   Clear
7:35 PM 77.0 °F 17.6 °F 11% 29.85 in 10.0 mi West 10.4 mph - N/A   Clear
7:55 PM 77.0 °F 17.6 °F 11% 29.85 in 10.0 mi West 10.4 mph - N/A   Clear
8:15 PM 75.2 °F 15.8 °F 11% 29.85 in 10.0 mi West 6.9 mph - N/A   Clear
8:35 PM 75.2 °F 15.8 °F 11% 29.85 in 10.0 mi West 6.9 mph - N/A   Clear
8:55 PM 73.4 °F 15.8 °F 11% 29.85 in 10.0 mi SSW 3.5 mph - N/A   Clear
9:15 PM 69.8 °F 12.2 °F 11% 29.85 in 10.0 mi South 6.9 mph - N/A   Clear
9:35 PM 69.8 °F 12.2 °F 11% 29.86 in 10.0 mi SSW 3.5 mph - N/A   Clear
9:55 PM 66.2 °F 10.4 °F 11% 29.86 in 10.0 mi SSE 4.6 mph - N/A   Clear
10:15 PM 62.6 °F 10.4 °F 13% 29.86 in 10.0 mi ESE 8.1 mph - N/A   Clear
10:35 PM 62.6 °F 10.4 °F 13% 29.86 in 10.0 mi SE 6.9 mph - N/A   Clear
10:55 PM 62.6 °F 10.4 °F 13% 29.86 in 10.0 mi SE 6.9 mph - N/A   Clear
11:15 PM 62.6 °F 10.4 °F 13% 29.86 in 10.0 mi SE 10.4 mph - N/A   Clear
11:35 PM 62.6 °F 12.2 °F 14% 29.86 in 10.0 mi SE 9.2 mph - N/A   Clear
11:55 PM 62.6 °F 10.4 °F 13% 29.86 in 10.0 mi SE 10.4 mph - N/A   Clear